Location: Dammartin
(48.9032°N, 1.6195°E)
Time: 12:49:46
(UTC+00:00)

YUBILEINY - Pass Details

Date: 11 December 2023
Orbit: 1479 x 1508 km, 82.5° (Epoch: 02 March)

Event Time Altitude Azimuth Distance (km) Brightness Sun altitude
Rises 18:24:37 0° 351° (N) 4,628 ? -23.2°
Reaches altitude 10° 18:27:46 10° 358° (N) 3,641 ? -23.7°
Maximum altitude 18:35:59 43° 68° (ENE) 1,994 ? -25.1°
Enters shadow 18:36:18 43° 73° (ENE) 1,996 ? -25.1°
